SL-19 DEB, 23483

Orbit data source: Space-Track

SL-19 DEB, 23483 is space debris in LEO originally from a launch on Mon, 26 Dec 1994 UTC launched from the Tyuratam Missile And Space Complex (TTMTR). Debris objects in space refer to the collection of defunct objects orbiting the Earth. Examples of debris include non-operational satellites, rocket bodies, and fragments generated from explosions, collisions, or faulty payload assembly.

Loading next visibility...
Identifier
23483, 1994-085F
Orbit
LEO
Last TLE update
22 hours ago
Origin
Manufacturer
Unknown
Mission
Spacecraft
Bus & Motor
Unknown
Mass
Unknown
Launch date (UTC)
1994-12-26 (30 years ago)
Launch vehicle
Unknown
Launch site
Tyuratam Missile And Space Complex (TTMTR)
Object type
Payload
Rocket body
Debris
Shape & HBR
Unknown
Radar Cross Section
0.810 m², Medium (>0.1 m² and < 1m²)

Expand to show TLE details & history

TLE from 22 hours ago
0 SL-19 DEB
1 23483U 94085F   25128.33133170 -.00000025  00000-0  49608-3 0  9993
2 23483  64.7311 349.1693 0202468 236.9589 298.1941 11.22866048245332
Epoch: 2025-05-08T07:57Z
Definitive object data (Epoch: 2025-05-08T07:57:07.058Z)
Latitude
6.20054°
Longitude
-179.43942°
Altitude
1,969.036 km
Speed
6.944 km/s
True Right ascension
11h 04m 58s
True Declination
6° 10' 09"
Sunlit
Object was in daylight at TLE epoch
Visualization TLE readout
Latitude
-56.3326°
Longitude
-133.1167°
Altitude
1,898.569 km
Speed
7.01 km/s
Apparent Right ascension
22h 47m 16s
Apparent Declination
-87° 36' 21"
Sunlit
Object is in full shadow
Visualization observer readout
Local Sidereal Time
13:53:41
Azimuth
177.676° S
Elevation
-41.538°
Doppler factor
1
Orbital elements
Apogee altitude
2,215.182 km
Perigee altitude
1,874.113 km
Semi-major axis
8,422.784 km
Eccentricity
0.0202468
Inclination
64.7311°
RAAN
349.1693°
Arg. of periapsis
236.9589°
True anomaly
296.12498°
Mean anomaly
298.1941°
Eccentric anomaly
297.16198°
Mean motion
2.80776 °/min
BSTAR
0.00049608
Orbital period
128.22 mins
Loading maneuver chart data...
Loading SW <> Apogee altitude chart data...
Loading historical data...
Loading historical data...
Loading historical data...
Loading historical data...
Loading historical data...
Loading historical data...
Loading historical data...

SL-19 DEB Visibility forecast

Observer location: undefined°, undefined°

Span
Click to sort rows by Start time (UTC) header in descending order
Start Az.
Max El. time (UTC)
Max El. Az.
Max El.
End time (UTC)
End Az.
22 mins2025-05-09 15:00:57.821Z174.342° S2025-05-09 15:11:57.821Z109.434° ESE35.172°2025-05-09 15:22:57.821Z42.824° NE
23 mins2025-05-09 17:13:57.821Z233.24° WSW2025-05-09 17:24:57.821Z311.301° NW40.841°2025-05-09 17:36:57.821Z28.992° NE
18 mins2025-05-09 19:32:57.821Z292.456° WNW2025-05-09 19:41:57.821Z342.908° N23.012°2025-05-09 19:50:57.821Z31.279° NE
16 mins2025-05-09 21:52:57.821Z332.583° NNW2025-05-09 22:00:57.821Z17.757° NNE21.98°2025-05-09 22:08:57.821Z63.075° ENE
21 mins2025-05-10 00:06:57.821Z333.338° NNW2025-05-10 00:17:57.821Z52.85° ENE39.252°2025-05-10 00:27:57.821Z122.439° SE
20 mins2025-05-10 02:20:57.821Z316.098° NNW2025-05-10 02:30:57.821Z245.362° WSW36.232°2025-05-10 02:40:57.821Z182.501° SSW
|